| time (UTC) | temp F | wind direction | speed MPH | gust MPH | rain 1hr in | rain 24hr in | rain mn in | humidity % | barometer mb |
| 20260509055524 | 53 | 0.0 | 0.0 | 0.00 | 0.00 | 0.00 | 84 | 1019.2 | |
| 20260509055016 | 51 | 0.0 | 0.0 | 0.00 | 0.00 | 0.00 | 89 | 1019.2 | |
| 20260509054620 | 50 | 0.0 | 0.0 | 0.00 | 0.00 | 0.00 | 93 | 1018.9 | |
| 20260509054054 | 48 | 0.0 | 0.0 | 0.00 | 0.00 | 0.00 | 97 | 1018.1 | |
| 20260509053515 | 47 | 0.0 | 0.0 | 0.00 | 0.00 | 0.00 | 99 | 1018.1 | |
| 20260509053019 | 46 | 0.0 | 0.0 | 0.00 | 0.00 | 0.00 | 99 | 1018.1 | |
| 20260509052523 | 45 | 0.0 | 0.0 | 0.00 | 0.00 | 0.00 | 99 | 1018.1 | |
| 20260509052027 | 44 | 0.0 | 0.0 | 0.00 | 0.00 | 0.00 | 99 | 1018.0 | |
| 20260509051518 | 43 | 0.0 | 0.0 | 0.00 | 0.00 | 0.00 | 99 | 1018.0 | |
| 20260509051022 | 43 | 0.0 | 0.0 | 0.00 | 0.00 | 0.00 | 99 | 1018.0 | |
| 20260509050526 | 42 | 0.0 | 0.0 | 0.00 | 0.00 | 0.00 | 99 | 1017.9 | |
| 20260509050018 | 42 | 0.0 | 0.0 | 0.00 | 0.00 | 0.00 | 99 | 1018.0 | |
| 20260509045522 | 42 | 0.0 | 0.0 | 0.00 | 0.00 | 0.00 | 99 | 1018.0 | |
| 20260509045026 | 41 | 0.0 | 0.0 | 0.00 | 0.00 | 0.00 | 99 | 1017.9 | |
| 20260509044518 | 41 | 0.0 | 0.0 | 0.00 | 0.00 | 0.00 | 99 | 1017.9 | |
| 20260509044021 | 41 | 0.0 | 0.0 | 0.00 | 0.00 | 0.00 | 99 | 1017.9 | |
| 20260509043525 | 41 | 0.0 | 0.0 | 0.00 | 0.00 | 0.00 | 99 | 1017.9 | |
| 20260509043017 | 41 | 0.0 | 0.0 | 0.00 | 0.00 | 0.00 | 99 | 1017.9 | |
| 20260509042521 | 41 | 0.0 | 0.0 | 0.00 | 0.00 | 0.00 | 99 | 1017.9 | |
| 20260509042025 | 41 | 0.0 | 0.0 | 0.00 | 0.00 | 0.00 | 99 | 1017.9 | |
| 20260509041729 | 41 | 0.0 | 0.0 | 0.00 | 0.00 | 0.00 | 99 | 1017.9 | |
| 20260509041021 | 41 | 0.0 | 0.0 | 0.00 | 0.00 | 0.00 | 99 | 1017.9 | |
| 20260509040802 | 41 | 0.0 | 0.0 | 0.00 | 0.00 | 0.00 | 99 | 1017.9 | |
| 20260509040016 | 41 | 0.0 | 0.0 | 0.00 | 0.00 | 0.00 | 99 | 1018.0 | |
| 20260509035520 | 41 | 0.0 | 0.0 | 0.00 | 0.00 | 0.00 | 99 | 1018.0 | |
| 20260509035024 | 41 | 0.0 | 0.0 | 0.00 | 0.00 | 0.00 | 99 | 1018.0 | |
| 20260509034515 | 41 | 0.0 | 0.0 | 0.00 | 0.00 | 0.00 | 99 | 1018.0 | |
| 20260509034019 | 41 | 0.0 | 0.0 | 0.00 | 0.00 | 0.00 | 99 | 1018.0 | |
| 20260509033523 | 42 | 0.0 | 0.0 | 0.00 | 0.00 | 0.00 | 99 | 1018.0 | |
| 20260509033027 | 42 | 0.0 | 0.0 | 0.00 | 0.00 | 0.00 | 99 | 1018.0 | |
| 20260509032518 | 42 | 0.0 | 0.0 | 0.00 | 0.00 | 0.00 | 99 | 1018.0 | |
| 20260509032023 | 42 | 0.0 | 0.0 | 0.00 | 0.00 | 0.00 | 99 | 1018.0 | |
| 20260509031527 | 42 | 0.0 | 0.0 | 0.00 | 0.00 | 0.00 | 99 | 1018.0 | |
| 20260509031019 | 42 | 0.0 | 0.0 | 0.00 | 0.00 | 0.00 | 99 | 1018.0 | |
| 20260509030523 | 42 | 0.0 | 0.0 | 0.00 | 0.00 | 0.00 | 99 | 1018.0 | |
| 20260509030015 | 42 | 0.0 | 0.0 | 0.00 | 0.00 | 0.00 | 99 | 1018.0 | |
| 20260509025519 | 42 | 0.0 | 0.0 | 0.00 | 0.00 | 0.00 | 99 | 1018.0 | |
| 20260509025023 | 42 | 0.0 | 0.0 | 0.00 | 0.00 | 0.00 | 99 | 1018.0 | |
| 20260509024516 | 42 | 0.0 | 0.0 | 0.00 | 0.00 | 0.00 | 99 | 1018.0 | |
| 20260509024019 | 42 | 0.0 | 0.0 | 0.00 | 0.00 | 0.00 | 99 | 1018.0 | |
| 20260509023524 | 42 | 0.0 | 0.0 | 0.00 | 0.00 | 0.00 | 98 | 1018.0 | |
| 20260509023016 | 43 | 0.0 | 0.0 | 0.00 | 0.00 | 0.00 | 98 | 1018.0 | |
| 20260509022520 | 43 | 0.0 | 0.0 | 0.00 | 0.00 | 0.00 | 98 | 1018.0 | |
| 20260509022124 | 43 | 0.0 | 0.0 | 0.00 | 0.00 | 0.00 | 99 | 1018.0 | |
| 20260509021516 | 43 | 0.0 | 0.0 | 0.00 | 0.00 | 0.00 | 98 | 1018.0 | |
| 20260509021033 | 43 | 0.0 | 0.0 | 0.00 | 0.00 | 0.00 | 98 | 1018.0 | |
| 20260509020525 | 44 | 0.0 | 0.0 | 0.00 | 0.00 | 0.00 | 98 | 1018.0 | |
| 20260509020017 | 44 | 0.0 | 0.0 | 0.00 | 0.00 | 0.00 | 99 | 1018.1 | |
| 20260509015520 | 44 | 0.0 | 0.0 | 0.00 | 0.00 | 0.00 | 99 | 1018.1 | |
| 20260509015025 | 44 | 0.0 | 0.0 | 0.00 | 0.00 | 0.00 | 98 | 1018.1 | |
| 20260509014516 | 44 | 0.0 | 0.0 | 0.00 | 0.00 | 0.00 | 97 | 1018.1 | |
| 20260509014021 | 44 | 0.0 | 0.0 | 0.00 | 0.00 | 0.00 | 97 | 1018.1 | |
| 20260509013525 | 44 | 0.0 | 0.0 | 0.00 | 0.00 | 0.00 | 96 | 1018.1 | |
| 20260509013017 | 44 | 0.0 | 0.0 | 0.00 | 0.00 | 0.00 | 96 | 1018.1 | |
| 20260509012521 | 45 | 0.0 | 0.0 | 0.00 | 0.00 | 0.00 | 96 | 1018.0 | |
| 20260509012025 | 45 | 0.0 | 0.0 | 0.00 | 0.00 | 0.00 | 96 | 1018.0 | |
| 20260509011517 | 45 | 0.0 | 0.0 | 0.00 | 0.00 | 0.00 | 97 | 1018.0 | |
| 20260509011021 | 45 | 0.0 | 0.0 | 0.00 | 0.00 | 0.00 | 97 | 1018.0 | |
| 20260509010525 | 45 | 0.0 | 0.0 | 0.00 | 0.00 | 0.00 | 96 | 1018.0 | |
| 20260509010017 | 45 | 0.0 | 0.0 | 0.00 | 0.00 | 0.00 | 94 | 1018.0 | |
| 20260509005521 | 45 | 0.0 | 0.0 | 0.00 | 0.00 | 0.00 | 94 | 1018.0 | |
| 20260509005025 | 46 | 0.0 | 0.0 | 0.00 | 0.00 | 0.00 | 95 | 1018.1 | |
| 20260509004547 | 46 | 0.0 | 0.0 | 0.00 | 0.00 | 0.00 | 95 | 1018.1 | |
| 20260509004021 | 46 | 0.0 | 0.0 | 0.00 | 0.00 | 0.00 | 95 | 1018.1 | |
| 20260509003555 | 46 | 0.0 | 0.0 | 0.00 | 0.00 | 0.00 | 95 | 1018.1 | |
| 20260509003017 | 46 | 0.0 | 0.0 | 0.00 | 0.00 | 0.00 | 95 | 1018.1 | |
| 20260509002521 | 46 | 0.0 | 0.0 | 0.00 | 0.00 | 0.00 | 94 | 1018.1 | |
| 20260509002026 | 46 | 0.0 | 0.0 | 0.00 | 0.00 | 0.00 | 93 | 1018.1 | |
| 20260509001518 | 47 | 0.0 | 0.0 | 0.00 | 0.00 | 0.00 | 91 | 1018.1 | |
| 20260509001022 | 47 | 0.0 | 0.0 | 0.00 | 0.00 | 0.00 | 91 | 1018.1 | |
| 20260509000526 | 47 | 0.0 | 0.0 | 0.00 | 0.00 | 0.00 | 91 | 1018.1 | |
| 20260509000018 | 48 | 0.0 | 0.0 | 0.00 | 0.00 | 0.00 | 91 | 1018.1 | |
| 20260508235522 | 48 | 0.0 | 0.0 | 0.00 | 0.00 | 0.00 | 89 | 1018.1 | |
| 20260508235015 | 48 | 0.0 | 0.0 | 0.00 | 0.00 | 0.00 | 89 | 1018.4 | |
| 20260508234519 | 49 | 0.0 | 0.0 | 0.00 | 0.00 | 0.00 | 89 | 1019.2 | |
| 20260508234024 | 49 | 0.0 | 0.0 | 0.00 | 0.00 | 0.00 | 88 | 1019.2 | |
| 20260508233545 | 49 | 0.0 | 0.0 | 0.00 | 0.00 | 0.00 | 89 | 1019.2 | |
| 20260508233050 | 49 | 0.0 | 0.0 | 0.00 | 0.00 | 0.00 | 89 | 1019.2 | |
| 20260508232524 | 49 | 0.0 | 0.0 | 0.00 | 0.00 | 0.00 | 90 | 1019.2 | |
| 20260508232016 | 49 | 0.0 | 0.0 | 0.00 | 0.00 | 0.00 | 89 | 1019.0 | |
| 20260508231521 | 49 | 0.0 | 0.0 | 0.00 | 0.00 | 0.00 | 89 | 1018.2 | |
| 20260508231025 | 49 | 0.0 | 0.0 | 0.00 | 0.00 | 0.00 | 89 | 1018.2 | |
| 20260508230517 | 49 | 0.0 | 0.0 | 0.00 | 0.00 | 0.00 | 89 | 1018.2 | |
| 20260508230034 | 49 | 0.0 | 0.0 | 0.00 | 0.00 | 0.00 | 90 | 1018.2 | |
| 20260508225526 | 49 | 0.0 | 0.0 | 0.00 | 0.00 | 0.00 | 90 | 1018.1 | |
| 20260508225018 | 49 | 0.0 | 0.0 | 0.00 | 0.00 | 0.00 | 89 | 1018.1 | |
| 20260508224534 | 50 | 0.0 | 0.0 | 0.00 | 0.00 | 0.00 | 89 | 1018.1 | |
| 20260508224026 | 50 | 0.0 | 0.0 | 0.00 | 0.00 | 0.00 | 89 | 1018.2 | |
| 20260508223518 | 50 | 0.0 | 0.0 | 0.00 | 0.00 | 0.00 | 89 | 1018.2 | |
| 20260508223121 | 50 | 0.0 | 0.0 | 0.00 | 0.00 | 0.00 | 89 | 1018.2 | |
| 20260508222556 | 50 | 0.0 | 0.0 | 0.00 | 0.00 | 0.00 | 88 | 1018.1 | |
| 20260508222048 | 50 | 0.0 | 0.0 | 0.00 | 0.00 | 0.00 | 88 | 1018.1 | |
| 20260508221522 | 50 | 0.0 | 0.0 | 0.00 | 0.00 | 0.00 | 88 | 1018.1 | |
| 20260508221027 | 50 | 0.0 | 0.0 | 0.00 | 0.00 | 0.00 | 87 | 1018.1 | |
| 20260508220519 | 50 | 0.0 | 0.0 | 0.00 | 0.00 | 0.00 | 87 | 1018.1 | |
| 20260508220023 | 50 | 0.0 | 0.0 | 0.00 | 0.00 | 0.00 | 87 | 1018.1 | |
| 20260508215615 | 50 | 0.0 | 0.0 | 0.00 | 0.00 | 0.00 | 87 | 1018.1 | |
| 20260508215508 | 50 | 0.0 | 0.0 | 0.00 | 0.00 | 0.00 | 86 | 1018.1 | |
| 20260508214555 | 51 | 0.0 | 0.0 | 0.00 | 0.00 | 0.00 | 85 | 1018.1 | |
| 20260508214017 | 51 | 0.0 | 0.0 | 0.00 | 0.00 | 0.00 | 86 | 1018.1 | |
| 20260508213521 | 51 | 0.0 | 0.0 | 0.00 | 0.00 | 0.00 | 85 | 1018.1 | |
| 20260508213039 | 51 | 0.0 | 0.0 | 0.00 | 0.00 | 0.00 | 84 | 1018.1 | |
| 20260508212531 | 52 | 0.0 | 0.0 | 0.00 | 0.00 | 0.00 | 82 | 1018.2 | |
| 20260508212052 | 52 | 0.0 | 0.0 | 0.00 | 0.00 | 0.00 | 83 | 1018.1 | |
| 20260508211527 | 53 | 0.0 | 0.0 | 0.00 | 0.00 | 0.00 | 82 | 1018.1 | |
| 20260508211130 | 53 | 0.0 | 0.0 | 0.00 | 0.00 | 0.00 | 80 | 1018.1 | |
| 20260508210524 | 53 | 0.0 | 0.0 | 0.00 | 0.00 | 0.00 | 79 | 1018.1 | |
| 20260508210016 | 54 | 0.0 | 0.0 | 0.00 | 0.00 | 0.00 | 78 | 1018.1 | |
| 20260508205620 | 54 | 355 | 0.0 | 1.0 | 0.00 | 0.00 | 0.00 | 77 | 1018.2 |
| 20260508205025 | 54 | 0.0 | 0.0 | 0.00 | 0.00 | 0.00 | 78 | 1018.2 | |
| 20260508204517 | 55 | 0.0 | 0.0 | 0.00 | 0.00 | 0.00 | 77 | 1018.2 | |
| 20260508204052 | 55 | 0.0 | 0.0 | 0.00 | 0.00 | 0.00 | 76 | 1018.2 | |
| 20260508203527 | 55 | 0.0 | 0.0 | 0.00 | 0.00 | 0.00 | 74 | 1018.2 | |
| 20260508203019 | 55 | 0.0 | 0.0 | 0.00 | 0.00 | 0.00 | 73 | 1018.2 | |
| 20260508202523 | 56 | 0.0 | 0.0 | 0.00 | 0.00 | 0.00 | 73 | 1018.2 | |
| 20260508202016 | 56 | 0.0 | 0.0 | 0.00 | 0.00 | 0.00 | 73 | 1018.1 | |
| 20260508201521 | 56 | 0 | 0.0 | 2.0 | 0.00 | 0.00 | 0.00 | 73 | 1018.1 |
| 20260508201038 | 56 | 0.0 | 0.0 | 0.00 | 0.00 | 0.00 | 74 | 1018.1 | |
| 20260508200600 | 56 | 0.0 | 0.0 | 0.00 | 0.00 | 0.00 | 74 | 1018.1 | |
| 20260508200023 | 56 | 0.0 | 0.0 | 0.00 | 0.00 | 0.00 | 72 | 1018.1 | |
| 20260508195515 | 57 | 0.0 | 0.0 | 0.00 | 0.00 | 0.00 | 71 | 1018.1 | |
| 20260508195049 | 57 | 0.0 | 0.0 | 0.00 | 0.00 | 0.00 | 71 | 1018.1 | |
| 20260508194524 | 57 | 0.0 | 0.0 | 0.00 | 0.00 | 0.00 | 71 | 1017.5 | |
| 20260508194016 | 57 | 0.0 | 0.0 | 0.00 | 0.00 | 0.00 | 70 | 1017.1 | |
| 20260508193621 | 57 | 355 | 0.0 | 0.0 | 0.00 | 0.00 | 0.00 | 70 | 1017.1 |
| 20260508193025 | 57 | 4 | 0.0 | 3.0 | 0.00 | 0.00 | 0.00 | 70 | 1017.1 |
| 20260508192518 | 57 | 0.0 | 0.0 | 0.00 | 0.00 | 0.00 | 70 | 1017.1 | |
| 20260508192022 | 58 | 0.0 | 0.0 | 0.00 | 0.00 | 0.00 | 71 | 1017.1 | |
| 20260508191527 | 58 | 0.0 | 0.0 | 0.00 | 0.00 | 0.00 | 69 | 1017.1 | |
| 20260508191049 | 58 | 0.0 | 0.0 | 0.00 | 0.00 | 0.00 | 69 | 1017.1 | |
| 20260508190553 | 59 | 0.0 | 0.0 | 0.00 | 0.00 | 0.00 | 68 | 1017.1 | |
| 20260508190016 | 59 | 0.0 | 0.0 | 0.00 | 0.00 | 0.00 | 67 | 1017.1 | |
| 20260508185520 | 60 | 0.0 | 0.0 | 0.00 | 0.00 | 0.00 | 67 | 1017.1 | |
| 20260508185025 | 60 | 0.0 | 0.0 | 0.00 | 0.00 | 0.00 | 65 | 1017.1 | |
| 20260508184517 | 60 | 0.0 | 0.0 | 0.00 | 0.00 | 0.00 | 64 | 1017.1 | |
| 20260508184022 | 61 | 4 | 0.0 | 2.0 | 0.00 | 0.00 | 0.00 | 63 | 1017.1 |
| 20260508183526 | 61 | 0.0 | 0.0 | 0.00 | 0.00 | 0.00 | 63 | 1017.1 | |
| 20260508183019 | 61 | 1 | 0.0 | 1.0 | 0.00 | 0.00 | 0.00 | 62 | 1016.9 |
| 20260508182524 | 61 | 0.0 | 0.0 | 0.00 | 0.00 | 0.00 | 62 | 1016.1 | |
| 20260508182016 | 61 | 358 | 0.0 | 1.0 | 0.00 | 0.00 | 0.00 | 62 | 1016.0 |
| 20260508181521 | 61 | 2 | 0.0 | 2.0 | 0.00 | 0.00 | 0.00 | 62 | 1015.9 |
| 20260508181026 | 62 | 7 | 1.0 | 2.0 | 0.00 | 0.00 | 0.00 | 61 | 1016.0 |
| 20260508180519 | 62 | 0.0 | 0.0 | 0.00 | 0.00 | 0.00 | 61 | 1016.0 | |
| 20260508180023 | 62 | 5 | 0.0 | 2.0 | 0.00 | 0.00 | 0.00 | 60 | 1016.0 |
| 20260508175516 | 62 | 9 | 0.0 | 2.0 | 0.00 | 0.00 | 0.00 | 60 | 1016.0 |
| 20260508175021 | 63 | 4 | 0.0 | 2.0 | 0.00 | 0.00 | 0.00 | 60 | 1016.0 |
| 20260508174526 | 63 | 5 | 1.0 | 2.0 | 0.00 | 0.00 | 0.00 | 59 | 1015.8 |
| 20260508174018 | 63 | 14 | 1.0 | 5.0 | 0.00 | 0.00 | 0.00 | 59 | 1015.8 |
| 20260508173523 | 63 | 4 | 0.0 | 4.0 | 0.00 | 0.00 | 0.00 | 60 | 1015.9 |
| 20260508173046 | 63 | 0.0 | 0.0 | 0.00 | 0.00 | 0.00 | 59 | 1015.9 | |
| 20260508172521 | 64 | 10 | 1.0 | 2.0 | 0.00 | 0.00 | 0.00 | 58 | 1015.9 |
| 20260508172026 | 64 | 20 | 1.0 | 3.0 | 0.00 | 0.00 | 0.00 | 58 | 1015.9 |
| 20260508171519 | 64 | 9 | 0.0 | 1.0 | 0.00 | 0.00 | 0.00 | 57 | 1015.9 |
| 20260508171024 | 65 | 13 | 1.0 | 3.0 | 0.00 | 0.00 | 0.00 | 56 | 1015.9 |
| 20260508170517 | 65 | 38 | 2.0 | 7.0 | 0.00 | 0.00 | 0.00 | 55 | 1015.9 |
| 20260508170022 | 65 | 23 | 1.0 | 8.0 | 0.00 | 0.00 | 0.00 | 55 | 1015.9 |
| 20260508165557 | 65 | 27 | 1.0 | 5.0 | 0.00 | 0.00 | 0.00 | 56 | 1015.9 |
| 20260508165049 | 65 | 4 | 0.0 | 1.0 | 0.00 | 0.00 | 0.00 | 56 | 1015.9 |
| 20260508164556 | 66 | 0.0 | 0.0 | 0.00 | 0.00 | 0.00 | 56 | 1015.9 | |
| 20260508164017 | 66 | 14 | 0.0 | 3.0 | 0.00 | 0.00 | 0.00 | 56 | 1015.9 |
| 20260508163649 | 66 | 360 | 1.0 | 2.0 | 0.00 | 0.00 | 0.00 | 56 | 1015.9 |
| 20260508163057 | 66 | 5 | 0.0 | 0.0 | 0.00 | 0.00 | 0.00 | 56 | 1015.9 |
| 20260508162550 | 66 | 358 | 0.0 | 1.0 | 0.00 | 0.00 | 0.00 | 56 | 1015.9 |
| 20260508162025 | 66 | 348 | 0.0 | 0.0 | 0.00 | 0.00 | 0.00 | 56 | 1015.9 |
| 20260508161518 | 67 | 356 | 0.0 | 1.0 | 0.00 | 0.00 | 0.00 | 55 | 1015.9 |
| 20260508161023 | 66 | 356 | 0.0 | 2.0 | 0.00 | 0.00 | 0.00 | 55 | 1015.9 |
| 20260508160516 | 66 | 359 | 0.0 | 2.0 | 0.00 | 0.00 | 0.00 | 56 | 1015.9 |
| 20260508160154 | 65 | 0.0 | 0.0 | 0.00 | 0.00 | 0.00 | 57 | 1015.9 | |
| 20260508155526 | 66 | 359 | 0.0 | 0.0 | 0.00 | 0.00 | 0.00 | 57 | 1015.9 |
| 20260508155246 | 66 | 9 | 0.0 | 1.0 | 0.00 | 0.00 | 0.00 | 56 | 1015.9 |
| 20260508154523 | 67 | 4 | 0.0 | 2.0 | 0.00 | 0.00 | 0.00 | 56 | 1015.9 |
| 20260508154016 | 68 | 14 | 1.0 | 5.0 | 0.00 | 0.00 | 0.00 | 54 | 1016.0 |
| 20260508153522 | 69 | 19 | 1.0 | 4.0 | 0.00 | 0.00 | 0.00 | 52 | 1016.0 |
| 20260508153026 | 69 | 31 | 1.0 | 5.0 | 0.00 | 0.00 | 0.00 | 50 | 1016.0 |
| 20260508152519 | 69 | 5 | 0.0 | 2.0 | 0.00 | 0.00 | 0.00 | 52 | 1016.0 |
| 20260508152024 | 70 | 16 | 1.0 | 4.0 | 0.00 | 0.00 | 0.00 | 52 | 1016.0 |
| 20260508151547 | 71 | 358 | 0.0 | 2.0 | 0.00 | 0.00 | 0.00 | 49 | 1016.0 |
| 20260508151052 | 70 | 358 | 1.0 | 2.0 | 0.00 | 0.00 | 0.00 | 49 | 1016.0 |
| 20260508150515 | 69 | 2 | 1.0 | 2.0 | 0.00 | 0.00 | 0.00 | 49 | 1016.0 |
| 20260508150020 | 68 | 355 | 0.0 | 2.0 | 0.00 | 0.00 | 0.00 | 52 | 1016.0 |
| 20260508145525 | 68 | 359 | 0.0 | 1.0 | 0.00 | 0.00 | 0.00 | 55 | 1016.0 |
| 20260508145018 | 68 | 21 | 1.0 | 5.0 | 0.00 | 0.00 | 0.00 | 53 | 1016.0 |
| 20260508144523 | 68 | 11 | 1.0 | 3.0 | 0.00 | 0.00 | 0.00 | 55 | 1016.0 |
| 20260508144015 | 69 | 30 | 1.0 | 3.0 | 0.00 | 0.00 | 0.00 | 54 | 1016.0 |
| 20260508143520 | 68 | 50 | 1.0 | 6.0 | 0.00 | 0.00 | 0.00 | 53 | 1016.0 |
| 20260508143025 | 68 | 22 | 0.0 | 7.0 | 0.00 | 0.00 | 0.00 | 54 | 1016.0 |
| 20260508142518 | 68 | 359 | 0.0 | 1.0 | 0.00 | 0.00 | 0.00 | 53 | 1016.0 |
| 20260508142053 | 68 | 358 | 0.0 | 2.0 | 0.00 | 0.00 | 0.00 | 53 | 1016.0 |
| 20260508141516 | 69 | 14 | 0.0 | 2.0 | 0.00 | 0.00 | 0.00 | 51 | 1016.0 |
| 20260508141021 | 69 | 34 | 1.0 | 5.0 | 0.00 | 0.00 | 0.00 | 51 | 1016.1 |
| 20260508140527 | 68 | 20 | 1.0 | 2.0 | 0.00 | 0.00 | 0.00 | 51 | 1016.0 |
| 20260508140019 | 67 | 26 | 0.0 | 5.0 | 0.00 | 0.00 | 0.00 | 53 | 1016.0 |
| 20260508135537 | 67 | 26 | 1.0 | 5.0 | 0.00 | 0.00 | 0.00 | 53 | 1016.0 |
| 20260508135030 | 67 | 19 | 1.0 | 3.0 | 0.00 | 0.00 | 0.00 | 53 | 1016.9 |
| 20260508134523 | 69 | 2 | 1.0 | 2.0 | 0.00 | 0.00 | 0.00 | 51 | 1017.0 |
| 20260508134016 | 70 | 26 | 1.0 | 5.0 | 0.00 | 0.00 | 0.00 | 51 | 1017.1 |
| 20260508133520 | 70 | 30 | 1.0 | 5.0 | 0.00 | 0.00 | 0.00 | 51 | 1017.1 |
| 20260508133026 | 70 | 22 | 0.0 | 2.0 | 0.00 | 0.00 | 0.00 | 51 | 1017.1 |
| 20260508132518 | 69 | 355 | 1.0 | 2.0 | 0.00 | 0.00 | 0.00 | 52 | 1017.1 |
| 20260508132024 | 70 | 20 | 1.0 | 3.0 | 0.00 | 0.00 | 0.00 | 50 | 1017.1 |
| 20260508131516 | 69 | 18 | 1.0 | 3.0 | 0.00 | 0.00 | 0.00 | 52 | 1017.1 |
| 20260508131022 | 68 | 359 | 0.0 | 2.0 | 0.00 | 0.00 | 0.00 | 55 | 1017.0 |
| 20260508130515 | 67 | 49 | 1.0 | 5.0 | 0.00 | 0.00 | 0.00 | 55 | 1017.0 |
| 20260508130020 | 67 | 22 | 1.0 | 3.0 | 0.00 | 0.00 | 0.00 | 56 | 1017.0 |
| 20260508125526 | 66 | 8 | 1.0 | 2.0 | 0.00 | 0.00 | 0.00 | 58 | 1017.0 |
| 20260508125048 | 66 | 30 | 1.0 | 3.0 | 0.00 | 0.00 | 0.00 | 57 | 1017.0 |
| 20260508124524 | 66 | 30 | 1.0 | 3.0 | 0.00 | 0.00 | 0.00 | 55 | 1017.0 |
| 20260508124016 | 66 | 25 | 0.0 | 2.0 | 0.00 | 0.00 | 0.00 | 55 | 1017.0 |
| 20260508123522 | 65 | 273 | 1.0 | 3.0 | 0.00 | 0.00 | 0.00 | 57 | 1017.0 |
| 20260508123027 | 66 | 317 | 1.0 | 3.0 | 0.00 | 0.00 | 0.00 | 55 | 1017.0 |
| 20260508122620 | 66 | 18 | 1.0 | 4.0 | 0.00 | 0.00 | 0.00 | 55 | 1017.0 |
| 20260508122025 | 66 | 12 | 1.0 | 5.0 | 0.00 | 0.00 | 0.00 | 56 | 1017.0 |
| 20260508121618 | 66 | 37 | 1.0 | 5.0 | 0.00 | 0.00 | 0.00 | 55 | 1017.0 |
| 20260508121023 | 66 | 337 | 0.0 | 0.0 | 0.00 | 0.00 | 0.00 | 54 | 1017.0 |
| 20260508120516 | 66 | 4 | 1.0 | 2.0 | 0.00 | 0.00 | 0.00 | 55 | 1017.0 |
| 20260508120022 | 66 | 42 | 1.0 | 5.0 | 0.00 | 0.00 | 0.00 | 55 | 1017.0 |
| 20260508115526 | 66 | 37 | 1.0 | 8.0 | 0.00 | 0.00 | 0.00 | 54 | 1017.0 |
| 20260508115049 | 65 | 53 | 1.0 | 7.0 | 0.00 | 0.00 | 0.00 | 55 | 1017.0 |
| 20260508114524 | 65 | 5 | 0.0 | 6.0 | 0.00 | 0.00 | 0.00 | 56 | 1017.0 |
| 20260508114016 | 65 | 9 | 1.0 | 8.0 | 0.00 | 0.00 | 0.00 | 57 | 1017.0 |
| 20260508113521 | 65 | 7 | 0.0 | 2.0 | 0.00 | 0.00 | 0.00 | 57 | 1017.0 |
| 20260508113026 | 65 | 34 | 1.0 | 5.0 | 0.00 | 0.00 | 0.00 | 55 | 1017.0 |
| 20260508112518 | 65 | 10 | 1.0 | 2.0 | 0.00 | 0.00 | 0.00 | 57 | 1017.0 |
| 20260508112053 | 65 | 13 | 1.0 | 5.0 | 0.00 | 0.00 | 0.00 | 54 | 1017.0 |
| 20260508111515 | 65 | 18 | 1.0 | 5.0 | 0.00 | 0.00 | 0.00 | 54 | 1017.0 |
| 20260508111020 | 65 | 31 | 2.0 | 5.0 | 0.00 | 0.00 | 0.00 | 55 | 1017.0 |
| 20260508110625 | 65 | 56 | 2.0 | 7.0 | 0.00 | 0.00 | 0.00 | 55 | 1017.0 |
| 20260508110018 | 65 | 27 | 2.0 | 5.0 | 0.00 | 0.00 | 0.00 | 55 | 1017.0 |
| 20260508105522 | 65 | 23 | 2.0 | 8.0 | 0.00 | 0.00 | 0.00 | 56 | 1017.0 |
| 20260508105027 | 65 | 34 | 1.0 | 5.0 | 0.00 | 0.00 | 0.00 | 55 | 1017.0 |
| 20260508104524 | 65 | 51 | 2.0 | 7.0 | 0.00 | 0.00 | 0.00 | 56 | 1017.0 |
| 20260508104017 | 65 | 35 | 2.0 | 8.0 | 0.00 | 0.00 | 0.00 | 57 | 1017.0 |
| 20260508103521 | 64 | 50 | 2.0 | 6.0 | 0.00 | 0.00 | 0.00 | 57 | 1017.0 |
| 20260508103040 | 64 | 45 | 2.0 | 6.0 | 0.00 | 0.00 | 0.00 | 56 | 1017.0 |
| 20260508102532 | 64 | 49 | 2.0 | 8.0 | 0.00 | 0.00 | 0.00 | 56 | 1017.0 |
| 20260508102025 | 64 | 30 | 2.0 | 6.0 | 0.00 | 0.00 | 0.00 | 57 | 1017.6 |
| 20260508101516 | 64 | 28 | 1.0 | 10.0 | 0.00 | 0.00 | 0.00 | 58 | 1018.0 |
| 20260508101020 | 64 | 24 | 2.0 | 6.0 | 0.00 | 0.00 | 0.00 | 57 | 1018.1 |
| 20260508100625 | 64 | 22 | 2.0 | 8.0 | 0.00 | 0.00 | 0.00 | 57 | 1018.1 |
| 20260508100017 | 63 | 31 | 1.0 | 6.0 | 0.00 | 0.00 | 0.00 | 58 | 1018.0 |
| 20260508095522 | 63 | 40 | 2.0 | 7.0 | 0.00 | 0.00 | 0.00 | 58 | 1018.0 |
| 20260508095026 | 63 | 50 | 2.0 | 5.0 | 0.00 | 0.00 | 0.00 | 58 | 1018.0 |
| 20260508094518 | 63 | 10 | 1.0 | 3.0 | 0.00 | 0.00 | 0.00 | 62 | 1018.0 |
| 20260508094022 | 63 | 5 | 2.0 | 6.0 | 0.00 | 0.00 | 0.00 | 61 | 1018.1 |
| 20260508093526 | 63 | 13 | 1.0 | 5.0 | 0.00 | 0.00 | 0.00 | 62 | 1018.1 |
| 20260508093017 | 62 | 3 | 1.0 | 3.0 | 0.00 | 0.00 | 0.00 | 63 | 1018.0 |
| 20260508092522 | 62 | 29 | 2.0 | 5.0 | 0.00 | 0.00 | 0.00 | 63 | 1018.0 |
| 20260508092026 | 62 | 46 | 1.0 | 5.0 | 0.00 | 0.00 | 0.00 | 63 | 1018.0 |
| 20260508091517 | 62 | 43 | 2.0 | 4.0 | 0.00 | 0.00 | 0.00 | 64 | 1018.0 |
| 20260508091021 | 63 | 35 | 1.0 | 8.0 | 0.00 | 0.00 | 0.00 | 65 | 1018.1 |
| 20260508090526 | 61 | 16 | 1.0 | 3.0 | 0.00 | 0.00 | 0.00 | 67 | 1018.0 |
| 20260508090018 | 60 | 13 | 1.0 | 5.0 | 0.00 | 0.00 | 0.00 | 69 | 1018.0 |
| 20260508085522 | 60 | 33 | 2.0 | 7.0 | 0.00 | 0.00 | 0.00 | 68 | 1018.0 |
| 20260508085026 | 60 | 34 | 1.0 | 5.0 | 0.00 | 0.00 | 0.00 | 69 | 1018.0 |
| 20260508084519 | 60 | 27 | 2.0 | 6.0 | 0.00 | 0.00 | 0.00 | 70 | 1018.0 |
| 20260508084052 | 60 | 30 | 1.0 | 5.0 | 0.00 | 0.00 | 0.00 | 71 | 1018.0 |
| 20260508083527 | 60 | 48 | 1.0 | 6.0 | 0.00 | 0.00 | 0.00 | 71 | 1018.0 |
| 20260508083018 | 59 | 14 | 1.0 | 2.0 | 0.00 | 0.00 | 0.00 | 72 | 1018.0 |
| 20260508082523 | 59 | 50 | 1.0 | 6.0 | 0.00 | 0.00 | 0.00 | 72 | 1018.0 |
| 20260508082027 | 60 | 23 | 1.0 | 5.0 | 0.00 | 0.00 | 0.00 | 72 | 1018.0 |
| 20260508081549 | 60 | 40 | 0.0 | 2.0 | 0.00 | 0.00 | 0.00 | 73 | 1018.0 |
| 20260508081123 | 59 | 15 | 0.0 | 2.0 | 0.00 | 0.00 | 0.00 | 74 | 1018.0 |
| 20260508080515 | 58 | 351 | 0.0 | 2.0 | 0.00 | 0.00 | 0.00 | 76 | 1018.0 |
| 20260508080020 | 58 | 24 | 0.0 | 3.0 | 0.00 | 0.00 | 0.00 | 76 | 1018.0 |
| 20260508075524 | 58 | 29 | 0.0 | 2.0 | 0.00 | 0.00 | 0.00 | 76 | 1018.0 |
| 20260508075016 | 57 | 27 | 0.0 | 3.0 | 0.00 | 0.00 | 0.00 | 77 | 1018.0 |
| 20260508074520 | 56 | 20 | 0.0 | 3.0 | 0.00 | 0.00 | 0.00 | 79 | 1018.0 |
| 20260508074024 | 56 | 43 | 0.0 | 2.0 | 0.00 | 0.00 | 0.00 | 78 | 1018.0 |
| 20260508073515 | 56 | 12 | 0.0 | 2.0 | 0.00 | 0.00 | 0.00 | 79 | 1018.0 |
| 20260508073019 | 56 | 0.0 | 0.0 | 0.00 | 0.00 | 0.00 | 79 | 1018.0 | |
| 20260508072523 | 55 | 0.0 | 0.0 | 0.00 | 0.00 | 0.00 | 80 | 1018.0 | |
| 20260508072016 | 54 | 0.0 | 0.0 | 0.00 | 0.00 | 0.00 | 81 | 1018.0 | |
| 20260508071533 | 54 | 0.0 | 0.0 | 0.00 | 0.00 | 0.00 | 83 | 1018.0 | |
| 20260508071025 | 54 | 0.0 | 0.0 | 0.00 | 0.00 | 0.00 | 82 | 1018.1 | |
| 20260508070517 | 54 | 0.0 | 0.0 | 0.00 | 0.00 | 0.00 | 82 | 1018.1 | |
| 20260508070050 | 54 | 25 | 1.0 | 2.0 | 0.00 | 0.00 | 0.00 | 83 | 1018.1 |
| 20260508065524 | 54 | 38 | 1.0 | 2.0 | 0.00 | 0.00 | 0.00 | 83 | 1018.1 |
| 20260508065116 | 54 | 43 | 1.0 | 3.0 | 0.00 | 0.00 | 0.00 | 84 | 1018.1 |
| 20260508064521 | 54 | 0.0 | 0.0 | 0.00 | 0.00 | 0.00 | 84 | 1018.1 | |
| 20260508064024 | 54 | 0.0 | 0.0 | 0.00 | 0.00 | 0.00 | 84 | 1018.1 | |
| 20260508063516 | 54 | 360 | 0.0 | 2.0 | 0.00 | 0.00 | 0.00 | 85 | 1018.1 |
| 20260508063051 | 54 | 4 | 0.0 | 2.0 | 0.00 | 0.00 | 0.00 | 85 | 1018.1 |
| 20260508062524 | 53 | 0.0 | 0.0 | 0.00 | 0.00 | 0.00 | 88 | 1018.1 | |
| 20260508062016 | 52 | 0.0 | 0.0 | 0.00 | 0.00 | 0.00 | 88 | 1018.0 | |
| 20260508061551 | 51 | 22 | 0.0 | 2.0 | 0.00 | 0.00 | 0.00 | 90 | 1018.0 |
| 20260508061025 | 50 | 0.0 | 0.0 | 0.00 | 0.00 | 0.00 | 94 | 1018.0 | |
| 20260508060517 | 50 | 0.0 | 0.0 | 0.00 | 0.00 | 0.00 | 96 | 1018.0 | |
| 20260508060021 | 49 | 1 | 0.0 | 1.0 | 0.00 | 0.00 | 0.00 | 97 | 1017.7 |